Regional Weather Roundup
Issued by NWS

Home | Current Version | Previous Version | Text Only | Print | Product List | Glossary Off
Versions: 1 2 3 4 5 6 7 8 9 10 11 12 13 14 15 16 17 18 19 20 21 22 23 24 25 26 27 28 29 30 31 32 33 34 35 36 37 38 39 40 41 42 43 44 45 46 47 48 49 50

000
ASUS43 KLSX 020907
RWRMO

WEATHER SUMMARY FOR MISSOURI
NATIONAL WEATHER SERVICE SPRINGFIELD MO
400 AM CDT TUE JUN 02 2015

NOTE: "FAIR" INDICATES FEW OR NO CLOUDS BELOW 12,000 FEET WITH NO
       SIGNIFICANT WEATHER AND/OR OBSTRUCTIONS TO VISIBILITY.
       CURRENT SKY AND/OR WEATHER CONDITIONS ARE NOT AVAILABLE FOR
       CHILLICOTHE AND FARMINGTON.

MOZ001>031-035>038-043-044-053-054-021000-
...NORTHERN AND WESTERN MISSOURI...

CITY           SKY/WX    TMP DP  RH WIND       PRES   REMARKS
KANSAS CTY INT CLOUDY    59  54  83 SE6       30.10F
KANSAS C DTWN  CLOUDY    61  52  72 VRB6      30.10F
LEE`S SUMMIT   CLOUDY    59  53  80 SE6       30.11F
ST JOSEPH      CLOUDY    60  53  77 S9        30.10S
CHILLICOTHE      N/A     61  54  77 SE3       30.13F
KIRKSVILLE     CLOUDY    52  52 100 CALM      30.15S

$$
MOZ066>068-077>081-088>096-101>105-021000-
...SOUTHWEST MISSOURI...

CITY           SKY/WX    TMP DP  RH WIND       PRES   REMARKS
SPRINGFIELD    CLOUDY    56  54  93 E3        30.10F
JOPLIN         CLEAR     55  54  96 E6        30.09S

$$
MOZ032>034-039>042-045>050-055>058-069>072-021000-
...CENTRAL MISSOURI...

CITY           SKY/WX    TMP DP  RH WIND       PRES   REMARKS
COLUMBIA       CLOUDY    59  56  89 CALM      30.13F
JEFFERSON CITY CLOUDY    60  56  86 CALM      30.13S
ROLLA          CLOUDY    57  56  96 CALM      30.11S
SEDALIA        CLOUDY    60  54  80 SE6       30.13F
WHITEMAN AFB   CLOUDY    59  54  83 SE6       30.11F
WARRENSBURG    CLOUDY    59  54  82 E3        30.12S
OSAGE BEACH    CLOUDY    57  55  94 CALM      30.13S

$$
MOZ051-052-059>065-021000-
...EAST CENTRAL MISSOURI...

CITY           SKY/WX    TMP DP  RH WIND       PRES   REMARKS
ST LOUIS INTL  MOCLDY    62  57  83 E3        30.13R
SPIRIT OF STL  CLOUDY    60  58  92 CALM      30.12R
ST CHARLES     CLOUDY    60  57  89 NE5       30.12S

$$
MOZ072>076-082>087-097>100-106>115-021000-
...SOUTH CENTRAL AND SOUTHEAST MISSOURI...

CITY           SKY/WX    TMP DP  RH WIND       PRES   REMARKS
CAPE GIRARDEAU CLOUDY    60  55  83 NE7       30.09S
FARMINGTON     CLOUDY    57  55  94 NE5       30.15R
POPLAR BLUFF   CLOUDY    61  56  83 N3        30.09S
WEST PLAINS    CLOUDY    59  54  83 SE6       30.13R

$$


USA.gov is the U.S. government's official web portal to all federal, state and local government web resources and services.